Ellensburg, WA

7:56 AM PST on December 13, 2017 (GMT -0800)
Bowers

Weather History for KELN - October, 2012

Change the Weather History Date:

Monday, October 22, 2012

  Actual Average (KYKM) Record (KYKM)
Temperature  
Mean Temperature 38 °F -  
Max Temperature 42 °F 61 °F 76 °F (1952)
Min Temperature 35 °F 32 °F 20 °F (1984)
Degree Days  
Heating Degree Days 27    
Moisture  
Dew Point 32 °F    
Average Humidity 81    
Maximum Humidity 87    
Minimum Humidity 73    
Precipitation  
Precipitation 0.46 in - - ()
Sea Level Pressure  
Sea Level Pressure 29.63 in    
Wind  
Wind Speed 3 mph (NW)    
Max Wind Speed 10 mph    
Max Gust Speed 26 mph    
Visibility 7 miles    
Events Rain , Snow    
Averages and records for this station are not official NWS values.
T = Trace of Precipitation, MM = Missing Value Source: NWS Daily Summary

Daily Weather History Graph

Daily Weather History Graph

Search for Another Location

Airport or City:

Trip Planner

Search our weather history database for the weather conditions in past years. The results will help you decide how hot, cold, wet, or windy it might be!

Date:

Astronomy

Oct. 22, 2012 Rise Set
Actual Time 7:31 AM PDT 6:01 PM PDT
Civil Twilight 6:59 AM PDT 6:32 PM PDT
Nautical Twilight 6:24 AM PDT 7:07 PM PDT
Astronomical Twilight 5:49 AM PDT 7:42 PM PDT
Moon 2:36 PM PDT (10/22) No Moon Set
Length of Visible Light 11h 32m
Length of Day
10h 30m
First Quarter, 57% of the Moon is Illuminated
Oct 22
First Quarter
Oct 29
Full
Nov 6
Last Quarter
Nov 13
New
Nov 20
First Quarter

Hourly Weather History & Observations

Time (PDT) Temp. Windchill Dew Point Humidity Pressure Visibility Wind Dir Wind Speed Gust Speed Precip Events Conditions
12:53 AM 37.0 °F - 28.9 °F 73% 29.81 in 10.0 mi Calm Calm - N/A   Overcast
2:53 AM 37.9 °F - 30.9 °F 76% 29.78 in 10.0 mi Calm Calm - N/A   Overcast
3:53 AM 39.0 °F 34.0 °F 30.9 °F 73% 29.75 in 10.0 mi Variable 6.9 mph 26.5 mph N/A   Overcast
4:10 AM 37.4 °F - 32.0 °F 81% 29.73 in 10.0 mi Calm Calm - N/A   Overcast
4:53 AM 37.9 °F 35.5 °F 32.0 °F 79% 29.72 in 10.0 mi NNW 3.5 mph - N/A   Overcast
5:53 AM 39.9 °F 36.7 °F 32.0 °F 73% 29.71 in 10.0 mi NNW 4.6 mph - N/A   Overcast
6:53 AM 39.9 °F 37.8 °F 32.0 °F 73% 29.70 in 10.0 mi NW 3.5 mph - 0.00 in   Overcast
7:45 AM 39.2 °F 37.0 °F 33.8 °F 81% 29.65 in 10.0 mi NNW 3.5 mph - 0.00 in Rain Light Rain
7:53 AM 39.9 °F 37.8 °F 33.1 °F 77% 29.68 in 10.0 mi NW 3.5 mph - 0.00 in Rain Light Rain
8:53 AM 39.9 °F 35.1 °F 34.0 °F 79% 29.67 in 10.0 mi West 6.9 mph - 0.01 in Rain Light Rain
10:50 AM 41.0 °F 34.7 °F 35.6 °F 81% 29.58 in 9.0 mi NW 10.4 mph - 0.01 in Rain Light Rain
10:53 AM 41.0 °F 35.2 °F 35.1 °F 79% 29.61 in 8.0 mi NW 9.2 mph - 0.01 in Rain Light Rain
11:53 AM 41.0 °F 37.1 °F 35.1 °F 79% 29.59 in 4.0 mi WSW 5.8 mph - 0.07 in Rain Light Rain
12:47 PM 39.2 °F 35.0 °F 33.8 °F 81% 29.55 in 2.5 mi WSW 5.8 mph - 0.09 in Rain Rain
12:53 PM 39.9 °F 37.8 °F 34.0 °F 79% 29.57 in 2.5 mi West 3.5 mph - 0.10 in Rain Rain
1:16 PM 39.2 °F 35.9 °F 33.8 °F 81% 29.55 in 3.0 mi West 4.6 mph - 0.05 in Rain Rain
1:53 PM 37.9 °F 35.5 °F 32.0 °F 79% 29.58 in 4.0 mi WSW 3.5 mph - 0.10 in Rain Rain
2:10 PM 37.4 °F 34.9 °F 33.8 °F 87% 29.55 in 5.0 mi WSW 3.5 mph - 0.02 in Rain Rain
2:35 PM 37.4 °F 32.8 °F 32.0 °F 81% 29.56 in 5.0 mi NW 5.8 mph - 0.05 in Snow Light Snow
2:43 PM 35.6 °F 30.7 °F 30.2 °F 81% 29.56 in 1.8 mi NNW 5.8 mph - 0.07 in Snow Light Snow
2:53 PM 35.1 °F 30.1 °F 30.9 °F 85% 29.59 in 1.0 mi NNW 5.8 mph - 0.08 in Snow Light Snow
3:02 PM 35.6 °F 30.7 °F 30.2 °F 81% 29.56 in 0.8 mi NNW 5.8 mph - 0.02 in Snow Light Snow
3:32 PM 35.6 °F 31.7 °F 30.2 °F 81% 29.57 in 1.2 mi North 4.6 mph - 0.05 in Snow Light Snow
3:44 PM 35.6 °F 31.7 °F 30.2 °F 81% 29.57 in 2.5 mi North 4.6 mph - 0.05 in Snow Light Snow
3:53 PM 36.0 °F 33.3 °F 30.9 °F 82% 29.60 in 4.0 mi North 3.5 mph - 0.06 in Snow Light Snow
4:53 PM 36.0 °F - 32.0 °F 86% 29.61 in 10.0 mi Calm Calm - 0.02 in Rain Light Rain
5:17 PM 35.6 °F 32.8 °F 32.0 °F 87% 29.58 in 10.0 mi South 3.5 mph - 0.01 in Rain Light Rain
5:34 PM 35.6 °F 32.8 °F 32.0 °F 87% 29.58 in 8.0 mi SE 3.5 mph - 0.01 in Rain Light Rain
5:51 PM 35.6 °F 32.8 °F 32.0 °F 87% 29.58 in 8.0 mi SE 3.5 mph - 0.01 in Rain Light Rain
5:53 PM 36.0 °F 33.3 °F 32.0 °F 86% 29.61 in 8.0 mi SE 3.5 mph - 0.01 in Rain Light Rain
6:53 PM 36.0 °F - 32.0 °F 86% 29.62 in 9.0 mi Calm Calm - 0.00 in   Overcast
7:09 PM 37.4 °F - 32.0 °F 81% 29.59 in 9.0 mi Calm Calm - 0.00 in Rain Light Rain
7:53 PM 37.0 °F - 32.0 °F 82% 29.63 in 10.0 mi Calm Calm - 0.00 in   Overcast
8:53 PM 37.0 °F - 32.0 °F 82% 29.64 in 10.0 mi Calm Calm - N/A   Overcast
9:01 PM 37.4 °F - 32.0 °F 81% 29.61 in 10.0 mi Calm Calm - N/A   Overcast
9:43 PM 35.6 °F - 32.0 °F 87% 29.62 in 10.0 mi Calm Calm - N/A   Overcast
10:04 PM 37.4 °F - 32.0 °F 81% 29.63 in 10.0 mi Calm Calm - N/A   Overcast
11:53 PM 37.9 °F - 33.1 °F 83% 29.67 in 10.0 mi Calm Calm - N/A   Overcast